Regional Weather Roundup
Issued by NWS Binghamton, NY

Home | Current Version | Previous Version | Text Only | Print | Product List | Glossary On
Versions: 1 2 3 4 5 6 7 8 9 10 11 12 13 14 15 16 17 18 19 20 21 22 23 24 25 26 27 28 29 30 31 32 33 34 35 36 37 38 39 40 41 42 43 44 45 46 47
000
ASUS41 KBGM 221010
RWRBGM
RWRBGM
BINGHAMTON REGIONAL WEATHER ROUNDUP
NATIONAL WEATHER SERVICE BINGHAMTON NY
600 AM EDT WED OCT 22 2014

Note: "fair" indicates few or no clouds below 12,000 feet with no
significant weather and/or obstructions to visibility.

* = Station(s) that does not report precipitation, such as rain,
snow, etc, also no thunder or fog.

!NYZ009-015>018-022>025-036-037-044>046-055>057-062-221100
...CENTRAL NEW YORK...

CITY           SKY/WX    TMP DP  RH WIND       PRES   REMARKS
BINGHAMTON     LGT RAIN  47  45  93 N10       30.00R
CORTLAND       CLOUDY    46  46 100 N9        30.06R
DANSVILLE      LGT RAIN  46  44  93 NW10      30.12R
ELMIRA         CLOUDY    48  46  93 N8        30.04R FOG
ITHACA         CLOUDY    47  47 100 N7        30.06R
HAMILTON       CLOUDY    48  45  87 N8        30.05R
MONTICELLO     CLOUDY    48  46  93 NE6       29.97R
NORWICH        CLOUDY    48  45  87 N5        30.04R
ONEONTA        CLOUDY    45  45 100 E8        30.02R FOG
PENN YAN       CLOUDY    46  44  93 N7        30.09R FOG
ROME           CLOUDY    47  44  90 CALM      30.08R
SIDNEY         CLOUDY    50  50 100 NE3       30.02R
SYRACUSE       CLOUDY    46  44  95 N16       30.08R
$$

!PAZ038>040-043-044-047-048-072-221100
...NORTHEAST PENNSYLVANIA...

CITY           SKY/WX    TMP DP  RH WIND       PRES   REMARKS
HAZLETON       CLOUDY    50  46  87 N7        29.95S
SCRANTON       CLOUDY    51  48  89 NE6       29.95R
TOWANDA*       MOCLDY    52  50  93 N7        30.01R
$$
&&
KEY
WCI = WIND CHILL INDEX
VSB = VISIBILITY
HX  = HEAT INDEX
$$



USA.gov is the U.S. government's official web portal to all federal, state and local government web resources and services.